Precipitable_Water
0.77 0.75 0.74 0.74 0.72 0.71 0.72 0.72 0.71 0.72 0.72 0.74 0.73 0.73 0.75 0.75 0.76 0.80 0.84 0.86 0.90 0.91 0.92 0.93 0.95 0.94 0.92 0.90 0.94 0.95 0.97 1.01 1.07 1.08 1.09 1.11 1.16 1.21 1.28 1.32 1.28 1.32 1.36 1.39 1.43 1.40 1.36 1.35 1.38 1.43 1.45 1.39 1.37 1.38 1.36 1.39 1.42 1.39 1.35 1.31 1.29 1.31 1.28 1.20 1.10 1.08 1.22 1.33 1.34 1.33 1.37 1.36 1.29 1.31 1.29 1.30 1.31 1.31 1.28 1.21 1.15 1.04 0.85 0.76 0.77
0.74 0.74 0.73 0.73 0.71 0.71 0.71 0.71 0.71 0.71 0.70 0.71 0.71 0.73 0.74 0.74 0.75 0.78 0.80 0.84 0.87 0.88 0.90 0.92 0.93 0.92 0.90 0.86 0.88 0.89 0.91 0.94 0.96 1.00 1.05 1.09 1.14 1.23 1.29 1.32 1.31 1.32 1.36 1.36 1.41 1.41 1.39 1.36 1.36 1.40 1.45 1.42 1.39 1.36 1.39 1.34 1.30 1.29 1.31 1.29 1.30 1.31 1.33 1.25 1.19 1.14 1.10 1.24 1.26 1.36 1.34 1.35 1.24 1.31 1.27 1.25 1.25 1.26 1.22 1.16 1.13 1.04 0.86 0.75 0.74
0.74 0.73 0.71 0.70 0.70 0.71 0.72 0.71 0.71 0.70 0.69 0.69 0.70 0.72 0.73 0.74 0.75 0.74 0.76 0.80 0.84 0.86 0.89 0.90 0.90 0.90 0.89 0.85 0.86 0.87 0.88 0.88 0.90 0.92 0.96 1.02 1.08 1.17 1.27 1.30 1.33 1.34 1.35 1.38 1.38 1.39 1.37 1.35 1.35 1.38 1.42 1.36 1.36 1.34 1.37 1.33 1.37 1.32 1.30 1.34 1.33 1.33 1.34 1.31 1.23 1.13 1.10 1.13 1.23 1.23 1.25 1.27 1.24 1.24 1.26 1.26 1.26 1.24 1.17 1.10 1.02 0.96 0.86 0.76 0.72
0.72 0.71 0.70 0.69 0.70 0.70 0.69 0.70 0.70 0.69 0.68 0.68 0.69 0.71 0.73 0.74 0.74 0.73 0.74 0.76 0.77 0.82 0.86 0.88 0.88 0.87 0.85 0.83 0.82 0.82 0.83 0.84 0.86 0.89 0.91 0.96 1.03 1.15 1.25 1.33 1.36 1.34 1.36 1.36 1.38 1.40 1.32 1.30 1.32 1.35 1.37 1.35 1.34 1.32 1.31 1.34 1.35 1.33 1.30 1.34 1.32 1.29 1.32 1.31 1.26 1.16 1.12 1.08 1.17 1.19 1.24 1.23 1.26 1.27 1.25 1.25 1.22 1.19 1.16 1.13 1.06 0.90 0.83 0.81 0.74
0.70 0.68 0.68 0.67 0.68 0.68 0.68 0.69 0.68 0.69 0.68 0.69 0.69 0.71 0.72 0.73 0.73 0.72 0.72 0.72 0.73 0.75 0.80 0.83 0.85 0.84 0.82 0.80 0.79 0.79 0.80 0.81 0.82 0.85 0.89 0.95 1.00 1.10 1.21 1.30 1.34 1.34 1.35 1.37 1.38 1.36 1.34 1.31 1.32 1.35 1.36 1.34 1.32 1.30 1.33 1.33 1.30 1.34 1.32 1.32 1.28 1.27 1.27 1.24 1.20 1.17 1.12 1.08 1.12 1.21 1.26 1.25 1.28 1.24 1.22 1.17 1.17 1.16 1.17 1.13 1.08 0.96 0.85 0.88 0.85
0.66 0.65 0.65 0.65 0.65 0.66 0.67 0.67 0.67 0.67 0.68 0.68 0.69 0.69 0.70 0.71 0.72 0.71 0.71 0.70 0.71 0.73 0.73 0.76 0.78 0.79 0.81 0.82 0.80 0.79 0.80 0.79 0.79 0.79 0.82 0.88 0.96 1.06 1.16 1.26 1.34 1.36 1.36 1.37 1.37 1.39 1.36 1.34 1.33 1.33 1.31 1.30 1.31 1.32 1.31 1.32 1.34 1.31 1.29 1.30 1.29 1.28 1.23 1.21 1.21 1.20 1.16 1.14 1.13 1.14 1.21 1.18 1.19 1.18 1.17 1.17 1.12 1.06 1.10 1.13 1.09 0.98 0.87 0.85 0.86
0.64 0.64 0.65 0.64 0.63 0.64 0.65 0.66 0.67 0.67 0.68 0.68 0.69 0.69 0.69 0.71 0.71 0.71 0.72 0.71 0.70 0.70 0.71 0.72 0.75 0.75 0.78 0.81 0.79 0.77 0.78 0.79 0.78 0.76 0.78 0.82 0.89 0.98 1.10 1.20 1.29 1.33 1.35 1.36 1.36 1.34 1.34 1.34 1.34 1.35 1.33 1.32 1.31 1.29 1.29 1.34 1.32 1.24 1.27 1.29 1.29 1.26 1.22 1.22 1.25 1.23 1.18 1.13 1.15 1.17 1.15 1.20 1.18 1.12 1.14 1.16 1.14 1.08 1.04 1.03 0.99 0.98 0.89 0.82 0.78
0.64 0.64 0.65 0.63 0.63 0.64 0.64 0.65 0.65 0.67 0.69 0.69 0.69 0.69 0.69 0.70 0.71 0.72 0.72 0.71 0.70 0.70 0.69 0.70 0.71 0.73 0.74 0.77 0.78 0.77 0.77 0.78 0.79 0.77 0.77 0.79 0.85 0.94 1.05 1.14 1.23 1.29 1.32 1.34 1.36 1.34 1.35 1.35 1.35 1.36 1.36 1.37 1.37 1.36 1.34 1.34 1.35 1.25 1.29 1.27 1.28 1.26 1.24 1.24 1.25 1.23 1.18 1.15 1.12 1.13 1.15 1.13 1.16 1.18 1.19 1.12 1.07 1.03 1.04 1.03 0.94 0.90 0.88 0.85 0.81
0.64 0.64 0.65 0.64 0.64 0.64 0.64 0.64 0.65 0.65 0.65 0.65 0.65 0.66 0.68 0.69 0.70 0.71 0.71 0.71 0.72 0.72 0.71 0.71 0.71 0.71 0.73 0.74 0.76 0.77 0.76 0.76 0.77 0.77 0.77 0.78 0.83 0.90 1.01 1.10 1.19 1.25 1.28 1.32 1.34 1.33 1.33 1.35 1.35 1.34 1.35 1.37 1.38 1.40 1.40 1.40 1.36 1.28 1.27 1.30 1.27 1.26 1.23 1.22 1.22 1.19 1.16 1.14 1.11 1.14 1.12 1.09 1.10 1.09 1.08 1.07 1.02 0.98 1.01 1.04 0.97 0.94 0.94 0.91 0.86
0.64 0.63 0.62 0.62 0.64 0.65 0.64 0.63 0.63 0.63 0.63 0.62 0.62 0.63 0.64 0.65 0.66 0.67 0.68 0.69 0.70 0.72 0.71 0.71 0.70 0.69 0.69 0.71 0.73 0.74 0.75 0.76 0.76 0.78 0.80 0.79 0.81 0.87 0.96 1.07 1.17 1.24 1.27 1.29 1.33 1.33 1.32 1.32 1.33 1.33 1.32 1.32 1.33 1.34 1.36 1.36 1.36 1.35 1.31 1.33 1.26 1.25 1.21 1.18 1.17 1.15 1.14 1.11 1.09 1.07 1.04 1.03 1.05 1.08 1.07 1.10 1.10 1.08 1.01 0.95 0.93 0.95 0.95 0.90 0.85
0.60 0.60 0.59 0.60 0.60 0.61 0.62 0.61 0.61 0.60 0.61 0.60 0.60 0.60 0.60 0.61 0.61 0.61 0.61 0.62 0.65 0.67 0.68 0.67 0.67 0.67 0.66 0.67 0.68 0.70 0.71 0.74 0.75 0.77 0.80 0.83 0.83 0.86 0.92 1.01 1.13 1.23 1.25 1.25 1.24 1.27 1.31 1.32 1.30 1.29 1.28 1.27 1.29 1.32 1.35 1.35 1.32 1.30 1.31 1.32 1.38 1.29 1.22 1.16 1.16 1.17 1.11 1.11 1.11 1.07 1.04 1.02 1.05 1.11 1.10 1.12 1.11 1.06 1.00 0.95 0.89 0.91 0.89 0.82 0.72
0.56 0.56 0.56 0.56 0.55 0.55 0.55 0.56 0.55 0.55 0.57 0.56 0.56 0.56 0.57 0.57 0.57 0.57 0.57 0.56 0.58 0.62 0.63 0.64 0.64 0.65 0.65 0.65 0.65 0.67 0.68 0.71 0.73 0.75 0.79 0.82 0.85 0.87 0.92 0.98 1.07 1.16 1.21 1.22 1.23 1.27 1.30 1.26 1.27 1.28 1.26 1.25 1.25 1.27 1.30 1.33 1.32 1.30 1.33 1.31 1.26 1.29 1.30 1.23 1.16 1.15 1.13 1.10 1.07 1.06 1.05 1.03 1.06 1.10 1.11 1.12 1.10 1.06 1.00 0.95 0.90 0.83 0.83 0.79 0.72
0.54 0.53 0.53 0.52 0.51 0.51 0.51 0.50 0.49 0.49 0.50 0.52 0.51 0.51 0.52 0.53 0.53 0.52 0.52 0.54 0.55 0.55 0.58 0.59 0.60 0.62 0.62 0.62 0.63 0.64 0.66 0.67 0.69 0.72 0.75 0.80 0.85 0.88 0.91 0.97 1.03 1.10 1.17 1.21 1.24 1.26 1.25 1.20 1.20 1.22 1.23 1.24 1.25 1.27 1.28 1.26 1.26 1.28 1.29 1.27 1.30 1.31 1.30 1.29 1.28 1.20 1.20 1.11 1.08 1.06 1.05 1.05 1.05 1.07 1.12 1.11 1.12 1.03 0.99 0.92 0.89 0.84 0.81 0.79 0.76
0.51 0.49 0.48 0.48 0.47 0.47 0.46 0.46 0.45 0.44 0.44 0.44 0.45 0.44 0.45 0.47 0.50 0.50 0.49 0.49 0.49 0.50 0.53 0.55 0.57 0.58 0.59 0.60 0.61 0.62 0.63 0.65 0.66 0.69 0.71 0.74 0.81 0.87 0.89 0.91 0.98 1.05 1.11 1.18 1.17 1.18 1.20 1.20 1.17 1.16 1.20 1.24 1.27 1.27 1.25 1.24 1.26 1.27 1.27 1.26 1.24 1.29 1.30 1.29 1.29 1.26 1.24 1.18 1.11 1.03 1.09 1.11 1.05 1.08 1.15 1.18 1.08 1.00 0.96 0.91 0.89 0.83 0.81 0.80 0.82
0.49 0.47 0.46 0.45 0.44 0.44 0.43 0.43 0.41 0.40 0.39 0.38 0.36 0.35 0.37 0.39 0.42 0.46 0.45 0.43 0.42 0.43 0.46 0.49 0.52 0.55 0.57 0.58 0.59 0.59 0.61 0.63 0.64 0.66 0.68 0.70 0.74 0.80 0.86 0.89 0.92 0.96 1.02 1.11 1.16 1.17 1.18 1.18 1.16 1.12 1.11 1.15 1.23 1.28 1.26 1.23 1.22 1.22 1.23 1.23 1.23 1.25 1.27 1.27 1.28 1.27 1.26 1.24 1.18 1.13 1.14 1.15 1.13 1.13 1.14 1.14 1.09 1.05 1.01 0.96 0.94 0.91 0.91 0.89 0.85
0.45 0.44 0.42 0.41 0.40 0.40 0.39 0.38 0.37 0.36 0.35 0.34 0.32 0.30 0.30 0.33 0.34 0.38 0.41 0.39 0.38 0.39 0.41 0.43 0.45 0.48 0.51 0.54 0.55 0.56 0.59 0.62 0.63 0.64 0.65 0.67 0.70 0.73 0.77 0.83 0.87 0.89 0.93 0.99 1.08 1.14 1.16 1.16 1.14 1.11 1.09 1.10 1.13 1.16 1.20 1.25 1.23 1.21 1.20 1.20 1.21 1.22 1.23 1.26 1.27 1.26 1.26 1.27 1.25 1.21 1.20 1.20 1.19 1.16 1.14 1.11 1.06 1.04 1.01 0.99 0.97 0.93 0.87 0.81 0.77
0.41 0.41 0.40 0.39 0.38 0.37 0.35 0.34 0.34 0.33 0.32 0.30 0.28 0.27 0.27 0.27 0.30 0.32 0.35 0.36 0.33 0.34 0.37 0.38 0.41 0.42 0.43 0.46 0.49 0.52 0.56 0.59 0.61 0.62 0.63 0.65 0.67 0.69 0.72 0.75 0.80 0.85 0.89 0.92 0.97 1.05 1.11 1.13 1.13 1.12 1.10 1.09 1.11 1.13 1.18 1.22 1.22 1.22 1.17 1.16 1.19 1.17 1.15 1.18 1.22 1.25 1.26 1.27 1.28 1.25 1.22 1.21 1.19 1.16 1.13 1.13 1.09 1.04 0.98 0.93 0.88 0.90 0.81 0.77 0.78
0.40 0.39 0.38 0.37 0.36 0.35 0.33 0.32 0.31 0.30 0.30 0.28 0.28 0.28 0.28 0.28 0.28 0.30 0.30 0.31 0.29 0.31 0.36 0.37 0.39 0.41 0.40 0.40 0.43 0.46 0.50 0.56 0.59 0.60 0.62 0.64 0.65 0.66 0.68 0.70 0.72 0.77 0.83 0.89 0.93 0.97 1.03 1.08 1.11 1.11 1.10 1.10 1.10 1.11 1.17 1.19 1.17 1.20 1.21 1.16 1.13 1.12 1.14 1.14 1.16 1.18 1.20 1.22 1.22 1.20 1.18 1.18 1.18 1.15 1.13 1.11 1.09 1.08 0.98 0.88 0.90 0.91 0.84 0.81 0.77
0.35 0.35 0.35 0.35 0.34 0.33 0.32 0.30 0.29 0.29 0.29 0.29 0.29 0.28 0.28 0.27 0.28 0.29 0.29 0.29 0.27 0.28 0.33 0.37 0.37 0.38 0.38 0.38 0.40 0.42 0.45 0.50 0.54 0.58 0.60 0.62 0.64 0.65 0.66 0.67 0.68 0.70 0.75 0.80 0.87 0.90 0.96 1.03 1.07 1.08 1.09 1.10 1.11 1.12 1.15 1.17 1.15 1.17 1.19 1.16 1.09 1.07 1.12 1.17 1.14 1.12 1.12 1.13 1.15 1.15 1.12 1.10 1.17 1.16 1.13 1.11 1.10 1.10 1.06 0.97 0.96 0.90 0.84 0.83 0.82
0.35 0.35 0.34 0.34 0.32 0.32 0.31 0.29 0.29 0.29 0.30 0.30 0.30 0.29 0.28 0.27 0.27 0.27 0.27 0.28 0.27 0.27 0.30 0.34 0.34 0.34 0.35 0.34 0.36 0.39 0.40 0.43 0.49 0.53 0.57 0.60 0.62 0.63 0.65 0.64 0.64 0.66 0.70 0.73 0.77 0.83 0.87 0.95 1.03 1.05 1.07 1.09 1.11 1.13 1.14 1.16 1.14 1.16 1.18 1.15 1.11 1.06 1.16 1.18 1.17 1.17 1.16 1.13 1.10 1.08 1.07 1.16 1.16 1.19 1.16 1.14 1.12 1.13 1.13 1.10 1.05 0.98 0.89 0.86 0.85
0.33 0.32 0.32 0.32 0.31 0.31 0.31 0.29 0.28 0.29 0.31 0.30 0.30 0.29 0.28 0.27 0.27 0.26 0.26 0.27 0.26 0.26 0.27 0.30 0.29 0.28 0.29 0.31 0.33 0.35 0.38 0.40 0.43 0.47 0.51 0.56 0.59 0.61 0.62 0.63 0.65 0.66 0.67 0.69 0.71 0.76 0.81 0.86 0.91 0.97 1.02 1.05 1.08 1.11 1.14 1.15 1.16 1.15 1.17 1.16 1.15 1.19 1.20 1.12 1.20 1.20 1.15 1.16 1.12 1.09 1.06 1.07 1.10 1.14 1.15 1.15 1.14 1.12 1.13 1.14 1.11 1.07 0.97 0.90 0.88
0.32 0.31 0.30 0.29 0.30 0.30 0.31 0.30 0.30 0.30 0.30 0.31 0.29 0.28 0.28 0.28 0.27 0.27 0.26 0.26 0.25 0.25 0.25 0.27 0.29 0.28 0.27 0.27 0.29 0.31 0.35 0.38 0.40 0.44 0.47 0.50 0.55 0.58 0.59 0.62 0.64 0.65 0.65 0.66 0.68 0.70 0.74 0.80 0.84 0.89 0.94 0.99 1.03 1.06 1.10 1.14 1.16 1.15 1.15 1.17 1.21 1.19 1.17 1.15 1.16 1.14 1.12 1.10 1.10 1.09 1.07 1.04 1.02 1.04 1.08 1.11 1.14 1.14 1.12 1.11 1.12 1.11 1.10 1.07 1.00
0.29 0.30 0.28 0.27 0.28 0.31 0.31 0.30 0.30 0.30 0.30 0.30 0.29 0.28 0.28 0.27 0.27 0.27 0.26 0.25 0.24 0.24 0.25 0.26 0.27 0.27 0.26 0.26 0.27 0.27 0.30 0.35 0.38 0.41 0.44 0.47 0.50 0.54 0.57 0.60 0.62 0.65 0.65 0.64 0.66 0.68 0.72 0.74 0.78 0.83 0.88 0.93 0.98 1.01 1.05 1.09 1.13 1.14 1.15 1.16 1.18 1.18 1.16 1.14 1.13 1.11 1.09 1.08 1.04 1.04 1.03 1.03 1.01 1.00 1.02 1.06 1.09 1.11 1.12 1.10 1.06 1.08 1.11 1.13 1.14
0.28 0.27 0.28 0.28 0.28 0.29 0.31 0.32 0.32 0.31 0.30 0.30 0.30 0.29 0.28 0.28 0.27 0.27 0.26 0.25 0.24 0.23 0.24 0.25 0.26 0.25 0.24 0.25 0.25 0.26 0.28 0.32 0.36 0.39 0.42 0.44 0.47 0.50 0.53 0.56 0.59 0.61 0.64 0.65 0.67 0.68 0.69 0.71 0.73 0.76 0.82 0.87 0.90 0.94 0.98 1.02 1.06 1.11 1.13 1.16 1.17 1.16 1.13 1.12 1.11 1.08 1.06 1.05 1.03 1.01 1.00 1.02 1.02 1.00 1.00 1.02 1.04 1.06 1.07 1.08 1.07 1.00 1.07 1.08 1.07
0.26 0.27 0.27 0.28 0.29 0.29 0.30 0.33 0.33 0.32 0.31 0.30 0.29 0.29 0.28 0.28 0.26 0.27 0.26 0.25 0.24 0.24 0.24 0.25 0.25 0.25 0.24 0.24 0.24 0.26 0.27 0.29 0.33 0.37 0.41 0.43 0.45 0.48 0.50 0.53 0.56 0.58 0.60 0.64 0.67 0.68 0.69 0.71 0.71 0.72 0.74 0.79 0.84 0.88 0.91 0.94 0.98 1.03 1.07 1.10 1.12 1.10 1.07 1.05 1.02 1.03 1.00 1.00 1.01 1.01 1.01 1.02 1.02 1.01 1.02 1.02 1.03 1.02 1.01 1.01 1.02 1.03 1.03 1.03 1.03
0.25 0.26 0.27 0.28 0.29 0.30 0.29 0.31 0.34 0.33 0.32 0.32 0.32 0.31 0.30 0.28 0.27 0.27 0.27 0.26 0.25 0.25 0.25 0.25 0.25 0.25 0.24 0.25 0.25 0.26 0.28 0.28 0.31 0.35 0.39 0.41 0.43 0.47 0.48 0.50 0.52 0.55 0.59 0.61 0.64 0.66 0.68 0.69 0.70 0.71 0.72 0.74 0.76 0.80 0.85 0.90 0.93 0.95 0.98 1.02 1.04 1.04 1.02 1.00 0.97 0.94 0.94 0.97 0.98 0.98 0.98 0.99 1.00 1.00 1.00 1.00 0.98 0.95 0.95 0.94 0.94 0.96 0.98 0.98 0.96
0.26 0.26 0.26 0.28 0.29 0.30 0.29 0.30 0.32 0.33 0.33 0.33 0.34 0.33 0.32 0.30 0.29 0.27 0.27 0.26 0.26 0.26 0.25 0.26 0.25 0.25 0.25 0.25 0.25 0.27 0.28 0.29 0.30 0.33 0.38 0.41 0.42 0.45 0.46 0.47 0.50 0.52 0.55 0.59 0.61 0.63 0.65 0.67 0.69 0.70 0.70 0.71 0.73 0.74 0.77 0.83 0.88 0.91 0.93 0.94 0.96 0.99 0.99 0.97 0.96 0.94 0.93 0.94 0.95 0.96 0.97 0.97 0.99 0.97 0.93 0.93 0.90 0.91 0.90 0.90 0.88 0.88 0.91 0.93 0.90
0.27 0.26 0.26 0.27 0.29 0.31 0.30 0.30 0.32 0.32 0.33 0.32 0.33 0.33 0.33 0.32 0.29 0.28 0.27 0.27 0.26 0.26 0.26 0.26 0.26 0.26 0.26 0.26 0.26 0.26 0.27 0.29 0.31 0.33 0.36 0.40 0.42 0.45 0.46 0.46 0.46 0.48 0.50 0.54 0.58 0.61 0.62 0.64 0.66 0.67 0.69 0.69 0.70 0.71 0.73 0.75 0.78 0.83 0.85 0.87 0.89 0.91 0.93 0.93 0.94 0.94 0.93 0.93 0.93 0.94 0.94 0.94 0.92 0.91 0.91 0.90 0.90 0.89 0.88 0.85 0.83 0.83 0.84 0.84 0.81
0.25 0.27 0.28 0.29 0.29 0.31 0.30 0.31 0.32 0.32 0.33 0.33 0.34 0.34 0.33 0.33 0.31 0.31 0.32 0.32 0.30 0.29 0.28 0.28 0.29 0.29 0.29 0.28 0.27 0.25 0.27 0.29 0.33 0.38 0.40 0.43 0.43 0.43 0.45 0.45 0.45 0.47 0.49 0.51 0.54 0.57 0.59 0.59 0.60 0.61 0.63 0.63 0.65 0.67 0.69 0.71 0.72 0.75 0.77 0.80 0.82 0.84 0.85 0.85 0.84 0.85 0.86 0.86 0.86 0.87 0.88 0.89 0.88 0.89 0.87 0.86 0.85 0.85 0.85 0.83 0.83 0.82 0.81 0.81 0.79
0.25 0.25 0.27 0.29 0.30 0.31 0.31 0.31 0.32 0.32 0.31 0.31 0.32 0.33 0.36 0.36 0.35 0.32 0.31 0.33 0.33 0.34 0.33 0.31 0.31 0.32 0.31 0.32 0.32 0.28 0.30 0.33 0.38 0.38 0.40 0.43 0.46 0.46 0.48 0.48 0.46 0.47 0.48 0.49 0.50 0.51 0.53 0.55 0.57 0.58 0.59 0.60 0.61 0.62 0.65 0.67 0.68 0.70 0.72 0.74 0.76 0.76 0.79 0.80 0.81 0.81 0.82 0.82 0.83 0.84 0.83 0.83 0.83 0.84 0.83 0.82 0.82 0.82 0.82 0.80 0.78 0.78 0.75 0.74 0.73
0.28 0.27 0.26 0.26 0.29 0.30 0.30 0.31 0.31 0.30 0.29 0.31 0.31 0.31 0.31 0.34 0.35 0.35 0.35 0.34 0.34 0.34 0.34 0.34 0.34 0.34 0.34 0.32 0.33 0.34 0.35 0.35 0.36 0.38 0.40 0.43 0.45 0.47 0.47 0.46 0.46 0.46 0.47 0.46 0.45 0.47 0.49 0.51 0.53 0.56 0.58 0.59 0.59 0.60 0.63 0.64 0.65 0.67 0.68 0.70 0.72 0.73 0.74 0.75 0.77 0.78 0.78 0.79 0.80 0.81 0.81 0.80 0.79 0.80 0.79 0.79 0.79 0.80 0.81 0.83 0.81 0.77 0.74 0.72 0.71
0.28 0.28 0.25 0.24 0.29 0.30 0.31 0.30 0.29 0.30 0.30 0.30 0.30 0.30 0.29 0.28 0.30 0.34 0.35 0.35 0.35 0.35 0.35 0.34 0.35 0.35 0.35 0.35 0.33 0.32 0.35 0.35 0.36 0.37 0.40 0.43 0.45 0.46 0.47 0.47 0.47 0.46 0.45 0.45 0.42 0.44 0.47 0.49 0.51 0.53 0.55 0.56 0.58 0.60 0.61 0.62 0.63 0.64 0.65 0.66 0.67 0.69 0.70 0.71 0.73 0.75 0.75 0.75 0.76 0.76 0.77 0.76 0.77 0.77 0.77 0.77 0.77 0.77 0.77 0.77 0.77 0.76 0.75 0.75 0.74
0.30 0.28 0.25 0.21 0.25 0.28 0.30 0.30 0.30 0.30 0.30 0.29 0.29 0.30 0.29 0.27 0.26 0.27 0.32 0.35 0.34 0.34 0.35 0.35 0.35 0.36 0.36 0.36 0.35 0.34 0.35 0.35 0.36 0.38 0.39 0.42 0.45 0.46 0.47 0.46 0.45 0.46 0.45 0.41 0.40 0.41 0.45 0.47 0.49 0.51 0.53 0.54 0.56 0.58 0.59 0.60 0.61 0.62 0.64 0.64 0.64 0.66 0.68 0.70 0.72 0.72 0.72 0.73 0.73 0.73 0.74 0.74 0.74 0.74 0.74 0.74 0.73 0.72 0.73 0.72 0.73 0.73 0.72 0.70 0.70
0.30 0.28 0.26 0.24 0.22 0.28 0.31 0.31 0.31 0.30 0.30 0.29 0.28 0.29 0.29 0.29 0.27 0.28 0.27 0.27 0.29 0.32 0.35 0.36 0.35 0.36 0.37 0.36 0.34 0.34 0.35 0.35 0.35 0.38 0.40 0.41 0.44 0.45 0.45 0.44 0.44 0.44 0.44 0.41 0.40 0.39 0.43 0.45 0.47 0.50 0.52 0.54 0.55 0.56 0.57 0.59 0.60 0.61 0.62 0.63 0.64 0.66 0.67 0.69 0.69 0.68 0.69 0.70 0.70 0.71 0.72 0.73 0.73 0.72 0.72 0.72 0.73 0.72 0.71 0.71 0.71 0.69 0.69 0.68 0.67
0.30 0.28 0.26 0.24 0.26 0.30 0.32 0.32 0.30 0.28 0.28 0.28 0.28 0.28 0.29 0.29 0.29 0.29 0.28 0.27 0.26 0.26 0.28 0.32 0.36 0.37 0.36 0.35 0.34 0.35 0.35 0.36 0.35 0.36 0.38 0.40 0.41 0.42 0.43 0.40 0.38 0.39 0.41 0.41 0.40 0.40 0.41 0.43 0.45 0.48 0.50 0.51 0.53 0.54 0.55 0.57 0.58 0.58 0.59 0.60 0.62 0.63 0.64 0.65 0.65 0.66 0.67 0.67 0.68 0.68 0.69 0.69 0.70 0.70 0.69 0.67 0.67 0.67 0.67 0.68 0.67 0.67 0.66 0.66 0.65
0.30 0.28 0.27 0.25 0.29 0.31 0.31 0.29 0.29 0.28 0.27 0.28 0.28 0.29 0.29 0.29 0.30 0.30 0.29 0.29 0.28 0.27 0.28 0.31 0.34 0.36 0.36 0.35 0.35 0.35 0.36 0.36 0.36 0.35 0.36 0.38 0.41 0.42 0.38 0.37 0.37 0.38 0.38 0.38 0.39 0.41 0.41 0.43 0.44 0.46 0.47 0.49 0.50 0.52 0.53 0.54 0.55 0.57 0.58 0.58 0.59 0.60 0.60 0.61 0.62 0.62 0.64 0.64 0.65 0.65 0.66 0.66 0.67 0.66 0.67 0.66 0.65 0.65 0.65 0.65 0.64 0.64 0.64 0.64 0.63
0.28 0.29 0.26 0.27 0.29 0.30 0.31 0.31 0.30 0.30 0.30 0.30 0.30 0.29 0.29 0.29 0.30 0.30 0.30 0.29 0.28 0.29 0.29 0.31 0.32 0.33 0.34 0.34 0.34 0.35 0.36 0.36 0.36 0.36 0.36 0.37 0.39 0.40 0.40 0.39 0.38 0.37 0.36 0.37 0.40 0.41 0.41 0.42 0.43 0.44 0.46 0.47 0.49 0.50 0.51 0.52 0.54 0.55 0.56 0.56 0.57 0.57 0.57 0.58 0.58 0.59 0.59 0.59 0.60 0.60 0.60 0.60 0.61 0.62 0.62 0.61 0.61 0.62 0.61 0.61 0.61 0.61 0.61 0.61 0.60
0.28 0.28 0.27 0.29 0.30 0.31 0.30 0.30 0.30 0.31 0.31 0.30 0.30 0.29 0.29 0.29 0.30 0.31 0.31 0.30 0.30 0.30 0.30 0.31 0.31 0.31 0.30 0.31 0.35 0.34 0.35 0.35 0.36 0.36 0.36 0.35 0.36 0.37 0.38 0.40 0.39 0.38 0.37 0.38 0.40 0.40 0.40 0.41 0.42 0.43 0.44 0.46 0.47 0.48 0.50 0.50 0.51 0.52 0.52 0.53 0.54 0.54 0.55 0.55 0.55 0.55 0.55 0.55 0.56 0.56 0.57 0.57 0.57 0.57 0.56 0.55 0.56 0.56 0.56 0.56 0.56 0.56 0.57 0.57 0.57
0.26 0.30 0.28 0.27 0.28 0.28 0.26 0.26 0.31 0.31 0.30 0.30 0.29 0.28 0.27 0.28 0.30 0.31 0.31 0.30 0.31 0.31 0.31 0.32 0.32 0.31 0.31 0.32 0.33 0.34 0.33 0.31 0.31 0.31 0.33 0.34 0.34 0.36 0.38 0.38 0.38 0.38 0.38 0.38 0.40 0.40 0.40 0.38 0.40 0.41 0.43 0.45 0.45 0.47 0.48 0.49 0.50 0.50 0.51 0.51 0.51 0.51 0.51 0.52 0.52 0.52 0.52 0.52 0.52 0.52 0.52 0.53 0.54 0.53 0.52 0.51 0.51 0.51 0.51 0.51 0.51 0.51 0.51 0.51 0.52
0.24 0.26 0.25 0.24 0.25 0.27 0.26 0.25 0.29 0.28 0.29 0.29 0.27 0.27 0.27 0.27 0.28 0.30 0.30 0.30 0.31 0.31 0.31 0.32 0.32 0.32 0.33 0.33 0.32 0.33 0.31 0.30 0.31 0.32 0.33 0.34 0.34 0.34 0.36 0.37 0.39 0.39 0.40 0.40 0.40 0.40 0.40 0.40 0.40 0.40 0.41 0.42 0.43 0.45 0.47 0.48 0.49 0.49 0.49 0.48 0.48 0.47 0.48 0.49 0.49 0.49 0.48 0.49 0.49 0.50 0.50 0.49 0.49 0.50 0.50 0.49 0.48 0.48 0.48 0.48 0.48 0.48 0.48 0.48 0.48
0.23 0.25 0.26 0.23 0.24 0.24 0.25 0.25 0.28 0.28 0.29 0.27 0.26 0.29 0.29 0.29 0.29 0.30 0.30 0.31 0.32 0.32 0.32 0.33 0.33 0.34 0.35 0.33 0.34 0.34 0.32 0.31 0.31 0.32 0.32 0.33 0.34 0.35 0.35 0.36 0.38 0.39 0.40 0.40 0.40 0.41 0.41 0.41 0.40 0.41 0.42 0.42 0.43 0.43 0.44 0.45 0.46 0.47 0.47 0.47 0.47 0.46 0.46 0.46 0.46 0.47 0.47 0.46 0.46 0.47 0.47 0.47 0.47 0.47 0.45 0.46 0.47 0.46 0.46 0.46 0.46 0.46 0.45 0.46 0.46
0.26 0.27 0.28 0.25 0.24 0.23 0.23 0.25 0.29 0.28 0.28 0.27 0.28 0.30 0.30 0.30 0.30 0.29 0.29 0.30 0.32 0.33 0.33 0.34 0.35 0.35 0.35 0.35 0.35 0.34 0.33 0.32 0.33 0.32 0.32 0.33 0.34 0.35 0.35 0.36 0.37 0.39 0.40 0.41 0.41 0.41 0.41 0.41 0.40 0.42 0.42 0.42 0.42 0.43 0.43 0.43 0.44 0.44 0.45 0.46 0.46 0.46 0.45 0.44 0.44 0.44 0.44 0.44 0.45 0.44 0.44 0.43 0.43 0.43 0.43 0.43 0.42 0.42 0.42 0.43 0.43 0.43 0.43 0.43 0.44
0.27 0.29 0.29 0.28 0.25 0.23 0.23 0.26 0.27 0.27 0.27 0.27 0.29 0.31 0.30 0.31 0.29 0.29 0.29 0.30 0.31 0.32 0.33 0.34 0.35 0.36 0.35 0.36 0.36 0.35 0.33 0.32 0.32 0.33 0.32 0.33 0.33 0.34 0.35 0.35 0.37 0.38 0.40 0.41 0.43 0.43 0.43 0.42 0.42 0.43 0.43 0.43 0.43 0.43 0.43 0.43 0.43 0.43 0.43 0.44 0.44 0.44 0.44 0.44 0.44 0.44 0.43 0.42 0.42 0.41 0.41 0.40 0.39 0.39 0.39 0.40 0.40 0.40 0.39 0.39 0.40 0.40 0.39 0.39 0.39
0.29 0.29 0.30 0.28 0.27 0.25 0.24 0.26 0.27 0.27 0.26 0.28 0.30 0.31 0.30 0.30 0.29 0.29 0.29 0.30 0.30 0.31 0.32 0.34 0.35 0.35 0.35 0.36 0.37 0.35 0.33 0.31 0.31 0.33 0.33 0.33 0.33 0.34 0.35 0.35 0.36 0.37 0.39 0.39 0.40 0.42 0.42 0.42 0.42 0.43 0.43 0.44 0.44 0.45 0.44 0.43 0.43 0.42 0.42 0.42 0.43 0.43 0.44 0.44 0.43 0.43 0.42 0.41 0.40 0.39 0.37 0.36 0.37 0.37 0.36 0.36 0.36 0.37 0.37 0.37 0.36 0.36 0.36 0.36 0.36
0.30 0.29 0.30 0.27 0.26 0.24 0.24 0.26 0.27 0.27 0.27 0.28 0.28 0.30 0.30 0.29 0.29 0.29 0.30 0.29 0.30 0.31 0.32 0.34 0.35 0.34 0.35 0.35 0.35 0.34 0.33 0.32 0.32 0.32 0.33 0.33 0.33 0.34 0.34 0.35 0.35 0.35 0.37 0.38 0.39 0.39 0.40 0.40 0.40 0.41 0.41 0.42 0.44 0.44 0.44 0.43 0.43 0.42 0.42 0.42 0.41 0.42 0.43 0.43 0.44 0.44 0.43 0.41 0.39 0.37 0.37 0.36 0.35 0.35 0.35 0.35 0.35 0.34 0.33 0.35 0.35 0.34 0.33 0.34 0.35
0.30 0.29 0.27 0.26 0.25 0.24 0.25 0.27 0.29 0.29 0.29 0.28 0.27 0.27 0.27 0.27 0.29 0.29 0.30 0.30 0.30 0.30 0.32 0.33 0.34 0.34 0.35 0.35 0.35 0.34 0.34 0.33 0.33 0.33 0.33 0.34 0.34 0.34 0.34 0.34 0.35 0.34 0.35 0.36 0.38 0.39 0.39 0.40 0.40 0.39 0.40 0.40 0.42 0.44 0.44 0.43 0.43 0.42 0.42 0.42 0.42 0.42 0.43 0.44 0.44 0.44 0.43 0.42 0.39 0.37 0.36 0.35 0.35 0.34 0.33 0.32 0.32 0.32 0.31 0.30 0.31 0.32 0.32 0.32 0.32
0.29 0.28 0.26 0.26 0.26 0.26 0.28 0.28 0.30 0.29 0.29 0.28 0.28 0.27 0.28 0.28 0.28 0.29 0.30 0.31 0.30 0.30 0.31 0.31 0.33 0.34 0.35 0.36 0.35 0.35 0.35 0.35 0.34 0.33 0.34 0.34 0.34 0.34 0.34 0.34 0.34 0.33 0.34 0.35 0.36 0.37 0.38 0.39 0.39 0.39 0.39 0.38 0.40 0.42 0.43 0.42 0.42 0.42 0.41 0.42 0.41 0.41 0.41 0.41 0.42 0.42 0.41 0.41 0.40 0.38 0.36 0.35 0.34 0.33 0.32 0.30 0.30 0.29 0.27 0.27 0.28 0.28 0.29 0.29 0.29
0.31 0.29 0.29 0.28 0.27 0.28 0.29 0.30 0.30 0.29 0.29 0.28 0.28 0.28 0.29 0.29 0.29 0.29 0.29 0.29 0.30 0.29 0.30 0.31 0.32 0.33 0.35 0.36 0.36 0.35 0.35 0.35 0.35 0.34 0.34 0.34 0.34 0.34 0.34 0.34 0.34 0.33 0.32 0.33 0.35 0.35 0.36 0.37 0.39 0.39 0.38 0.38 0.38 0.39 0.38 0.38 0.39 0.40 0.40 0.40 0.40 0.39 0.39 0.38 0.38 0.39 0.39 0.39 0.38 0.37 0.36 0.35 0.33 0.32 0.32 0.30 0.28 0.27 0.27 0.27 0.27 0.28 0.28 0.28 0.27
0.30 0.30 0.30 0.29 0.30 0.30 0.30 0.30 0.29 0.29 0.29 0.29 0.29 0.29 0.29 0.29 0.29 0.29 0.29 0.29 0.29 0.29 0.29 0.30 0.31 0.32 0.33 0.35 0.35 0.35 0.35 0.35 0.34 0.34 0.33 0.33 0.34 0.34 0.34 0.34 0.34 0.33 0.32 0.31 0.32 0.34 0.35 0.36 0.36 0.38 0.39 0.39 0.38 0.38 0.38 0.37 0.35 0.35 0.36 0.37 0.37 0.38 0.37 0.36 0.36 0.36 0.37 0.37 0.37 0.36 0.34 0.32 0.31 0.31 0.31 0.29 0.27 0.24 0.25 0.26 0.26 0.28 0.27 0.26 0.26
0.30 0.30 0.30 0.31 0.30 0.31 0.32 0.31 0.30 0.30 0.30 0.30 0.29 0.29 0.29 0.29 0.29 0.29 0.30 0.30 0.29 0.29 0.29 0.30 0.31 0.32 0.33 0.33 0.33 0.34 0.34 0.34 0.34 0.34 0.33 0.33 0.34 0.34 0.34 0.34 0.34 0.33 0.33 0.32 0.32 0.32 0.34 0.35 0.36 0.36 0.37 0.38 0.39 0.37 0.37 0.36 0.35 0.34 0.34 0.32 0.33 0.35 0.35 0.35 0.35 0.35 0.35 0.35 0.35 0.34 0.33 0.30 0.28 0.27 0.26 0.26 0.23 0.20 0.22 0.24 0.26 0.27 0.27 0.24 0.22
0.31 0.32 0.31 0.31 0.30 0.31 0.32 0.31 0.31 0.31 0.30 0.30 0.30 0.30 0.30 0.29 0.29 0.29 0.30 0.30 0.29 0.29 0.29 0.31 0.32 0.32 0.32 0.32 0.33 0.34 0.34 0.34 0.35 0.35 0.34 0.33 0.33 0.34 0.34 0.34 0.34 0.33 0.33 0.33 0.32 0.32 0.32 0.33 0.35 0.35 0.35 0.35 0.36 0.37 0.36 0.35 0.35 0.34 0.32 0.30 0.31 0.33 0.33 0.34 0.34 0.34 0.33 0.33 0.32 0.31 0.29 0.27 0.25 0.23 0.21 0.22 0.21 0.19 0.22 0.23 0.24 0.26 0.26 0.24 0.23
Wind_Speed
18 18 18 19 19 19 19 20 20 20 20 20 20 20 21 21 22 22 23 23 23 24 24 24 25 25 26 27 27 27 27 27 28 27 27 27 27 26 25 23 23 23 22 23 23 23 23 24 24 24 24 24 23 23 23 23 23 23 23 23 23 23 23 22 21 21 20 21 22 22 22 23 23 23 23 23 23 22 21 19 18 18 17 17 17
18 18 18 19 19 19 19 20 20 20 20 20 20 20 21 21 22 23 23 23 24 24 24 25 25 25 25 26 27 26 26 27 27 27 27 27 26 25 23 22 21 20 20 21 22 22 22 23 24 24 24 24 24 23 23 23 23 23 23 23 23 23 23 23 22 21 20 21 22 22 22 23 23 23 23 24 23 22 21 20 19 18 18 18 17
18 18 18 18 19 19 19 19 19 20 20 21 21 21 21 22 22 23 23 23 24 24 25 25 25 25 25 26 26 26 26 27 27 27 27 26 26 25 22 20 19 19 19 20 20 21 21 22 23 23 24 24 24 24 23 23 23 23 23 23 23 24 24 24 23 22 21 21 22 22 22 23 23 23 23 24 23 23 22 21 19 19 19 18 18
17 18 18 18 19 19 19 20 20 21 21 22 22 22 22 22 22 23 23 23 23 24 24 24 25 25 25 26 27 27 27 27 27 27 27 26 25 25 22 19 19 19 19 19 20 20 21 21 22 23 23 24 24 24 24 24 23 23 23 23 24 24 24 24 23 22 22 22 23 23 23 23 23 23 23 23 23 23 23 21 20 20 19 19 19
18 18 18 18 19 19 20 21 21 21 22 22 23 22 22 22 22 22 22 23 23 23 24 24 25 25 25 26 27 27 27 27 27 27 27 26 25 24 22 19 18 18 18 19 19 20 20 21 21 22 22 24 24 24 23 24 24 23 23 23 23 24 24 24 24 23 23 23 23 23 23 23 23 23 23 23 23 23 23 22 21 20 20 20 20
18 17 18 18 19 20 21 21 22 22 22 22 23 23 22 22 22 22 22 23 23 23 23 24 24 25 25 26 27 28 27 27 26 27 27 26 25 24 22 20 18 18 18 18 18 19 20 20 21 22 22 23 24 24 23 23 23 23 23 24 24 24 24 24 24 24 24 24 23 23 24 24 24 23 23 24 24 24 23 22 21 21 21 21 20
17 17 18 19 20 20 21 22 22 22 22 23 23 23 23 23 23 23 23 23 23 23 24 24 25 25 25 26 27 28 28 27 27 27 27 26 25 24 22 21 20 19 18 18 18 18 19 19 20 21 22 23 23 23 23 23 23 23 24 24 24 24 24 24 24 24 24 24 24 24 24 24 24 24 23 24 24 24 23 23 22 22 22 21 20
17 18 19 19 20 21 21 22 23 23 23 23 23 24 24 23 24 24 24 24 24 24 24 25 25 25 26 26 26 27 28 27 27 27 27 26 25 24 22 20 19 19 18 17 17 18 19 19 20 20 21 22 22 22 22 23 23 23 23 24 24 24 24 24 24 25 24 24 24 24 24 24 24 24 23 23 24 24 24 24 23 23 22 22 21
17 18 19 20 20 21 22 23 23 23 23 23 23 24 24 24 24 24 24 24 25 25 25 25 25 26 26 26 26 27 27 27 27 27 27 26 25 24 22 20 19 18 18 18 18 18 18 19 20 20 21 21 22 22 22 22 23 22 23 24 23 24 24 24 24 24 24 24 24 24 24 24 25 25 24 24 25 25 24 24 24 23 23 22 21
17 18 19 20 21 21 22 23 23 23 23 23 23 23 23 23 24 24 24 24 24 25 25 25 25 26 26 26 26 27 26 26 27 27 26 25 25 23 22 20 18 18 18 18 18 18 18 18 19 20 21 21 22 22 23 23 23 23 23 24 24 24 24 24 24 24 24 24 24 24 24 25 26 26 25 25 25 25 25 25 25 24 23 22 21
17 18 19 20 21 21 22 22 22 22 23 23 23 23 23 23 23 23 24 24 24 24 25 25 25 26 26 26 26 26 26 27 27 27 26 25 24 23 22 20 18 17 18 18 18 18 17 18 18 19 20 21 21 22 22 22 23 23 24 24 25 25 25 25 24 25 25 25 25 25 24 25 26 26 26 26 26 25 26 26 26 25 23 22 21
17 18 19 20 20 21 21 21 21 22 22 22 22 22 23 23 23 24 24 25 25 25 25 25 26 26 26 26 26 26 27 27 27 27 26 25 24 23 21 20 19 18 18 18 18 18 17 18 18 18 19 20 20 21 21 22 23 23 23 24 25 26 26 25 25 25 25 25 25 25 25 25 26 26 27 27 26 25 26 27 27 25 24 23 22
17 18 19 19 19 20 21 21 21 21 21 22 22 23 23 23 23 24 25 25 26 25 25 25 25 26 26 26 26 26 27 27 27 27 26 25 24 23 21 20 19 18 17 17 17 17 18 18 18 18 18 19 19 20 20 21 22 23 24 24 24 25 26 26 26 25 25 26 26 26 26 26 26 27 27 27 27 26 26 27 27 26 25 24 23
16 17 18 18 19 19 20 20 21 21 22 22 23 23 23 23 24 25 25 26 26 26 26 25 26 26 26 26 26 26 26 27 27 26 26 25 23 22 21 20 19 18 17 16 16 16 17 18 18 18 18 19 19 19 20 20 21 22 23 24 23 24 24 25 25 26 25 26 26 26 26 26 26 27 27 28 28 28 27 27 28 27 26 25 24
15 16 17 18 18 19 20 20 20 21 22 22 23 23 24 24 24 25 25 26 27 27 26 26 26 26 26 26 27 27 27 27 27 26 26 25 23 22 21 21 19 18 18 17 17 17 17 18 18 19 19 19 18 19 20 20 21 22 23 24 24 24 23 24 24 25 25 26 26 26 26 26 26 26 27 27 28 28 27 27 28 27 26 26 25
14 15 16 17 18 19 19 19 20 21 21 22 23 23 24 24 25 25 25 26 27 27 26 26 26 26 26 27 27 27 27 28 27 26 26 25 23 21 21 21 20 19 18 18 17 17 18 18 19 20 20 20 19 19 20 21 21 22 22 23 24 24 24 23 24 24 25 25 25 25 25 25 26 26 26 26 27 28 27 27 28 27 27 26 26
14 15 16 17 18 18 19 19 20 21 21 22 23 24 25 25 25 25 26 26 27 27 27 27 27 27 27 27 27 27 27 28 28 27 26 25 23 21 20 20 20 20 19 19 18 18 18 19 20 20 21 21 21 21 21 21 21 22 22 22 23 23 24 23 23 23 24 24 24 24 25 25 25 25 25 25 26 27 28 28 28 27 27 26 25
14 14 16 17 17 18 19 20 20 21 22 23 24 25 26 26 26 26 26 27 28 28 27 27 28 28 28 28 27 27 27 27 27 27 27 26 24 22 21 20 20 20 20 20 19 19 18 19 19 20 21 22 22 23 23 23 23 23 23 23 23 23 24 24 24 24 24 24 24 24 25 25 25 25 25 25 25 26 28 29 29 28 27 26 25
13 14 15 16 17 18 19 20 20 21 22 23 24 25 26 26 26 26 27 27 28 28 27 28 28 28 28 29 28 28 27 27 27 27 27 26 25 23 22 21 21 20 20 20 20 20 19 19 19 20 21 22 23 23 23 23 24 24 23 23 23 24 24 25 25 25 25 25 25 25 25 25 25 25 26 25 25 25 27 29 29 29 29 27 25
13 14 15 16 16 18 18 19 20 20 21 22 23 24 25 26 26 26 27 27 27 27 27 27 28 28 29 29 29 28 28 28 27 27 26 26 25 24 22 21 21 21 21 20 20 20 20 20 20 20 21 22 22 23 23 24 24 24 24 23 24 24 24 24 24 25 25 25 25 24 24 24 26 26 26 25 25 25 26 27 27 28 29 29 27
12 13 14 15 16 17 18 18 19 20 20 21 23 24 25 26 26 27 27 27 28 28 27 27 28 28 28 28 28 28 28 28 27 27 26 26 25 24 23 22 22 22 21 20 20 20 20 20 20 20 21 21 21 22 23 24 24 25 25 24 24 24 24 23 23 23 24 24 24 24 24 24 25 26 26 25 25 25 27 27 27 27 28 29 29
11 12 14 15 15 15 17 18 19 20 20 21 23 24 25 26 26 27 27 27 28 28 28 27 27 28 28 28 28 28 27 27 27 27 26 25 24 23 23 22 22 22 22 21 20 19 20 19 19 20 20 21 20 20 21 23 24 25 25 26 25 24 24 23 23 23 23 23 24 24 24 24 24 25 25 25 25 25 26 27 27 27 28 29 29
11 12 13 14 15 15 16 17 19 20 21 22 23 24 25 26 27 27 28 28 28 28 28 28 27 28 28 28 28 28 28 27 26 26 26 25 24 23 22 22 22 22 22 21 21 20 19 19 19 19 19 20 20 20 20 21 22 23 24 25 25 25 24 24 23 23 23 23 23 23 24 24 24 24 25 25 26 26 26 26 25 26 27 28 28
11 12 13 14 15 15 16 16 18 20 21 22 23 24 25 26 27 28 28 28 28 28 28 28 28 28 28 28 28 28 27 26 26 26 25 25 24 24 22 22 21 21 21 21 21 20 19 19 19 19 19 19 19 19 19 20 21 22 22 23 24 24 24 24 24 24 24 23 23 23 23 23 23 24 24 25 26 26 26 25 24 24 25 26 27
11 12 13 14 15 16 16 16 17 19 21 22 23 24 26 27 28 28 29 29 28 28 28 28 28 28 28 28 28 27 26 25 25 25 25 25 24 24 23 22 21 20 19 20 20 20 20 19 19 19 18 18 18 18 18 19 19 20 21 22 23 23 23 23 23 23 23 23 23 23 23 23 23 23 24 25 25 25 25 24 24 23 23 24 24
11 12 13 14 15 16 17 17 18 19 21 22 23 24 26 27 28 29 29 29 29 29 29 29 28 28 28 28 27 27 25 24 23 24 24 24 23 23 22 21 20 19 19 18 19 19 19 19 19 19 18 17 17 17 17 17 18 18 18 20 21 21 21 21 21 22 22 23 23 22 22 22 23 23 24 24 25 24 24 24 23 23 23 23 23
11 12 13 14 15 16 17 18 19 20 21 22 23 24 26 27 28 29 30 30 30 29 29 29 28 28 28 28 27 26 25 23 22 22 22 22 22 22 21 20 19 19 18 18 18 18 18 18 18 18 18 18 17 16 16 16 16 16 16 17 18 19 19 19 19 20 20 21 21 21 21 21 22 22 23 23 24 23 23 23 23 23 23 24 23
11 12 13 14 15 16 17 18 19 20 21 22 24 25 26 27 28 29 30 31 30 30 29 29 28 28 27 27 27 26 25 23 22 22 22 21 21 20 20 19 18 18 18 17 17 16 16 16 16 17 17 17 17 17 17 16 16 15 15 16 17 17 18 18 18 18 19 19 20 20 20 20 21 21 22 22 22 22 22 22 22 23 23 23 23
11 12 13 14 15 16 17 18 19 20 21 22 24 24 25 27 28 29 30 31 31 30 30 29 29 28 27 27 27 26 25 23 22 21 21 21 20 19 19 18 18 17 17 17 16 15 15 15 15 15 16 16 16 16 16 16 16 16 16 17 17 17 17 18 18 18 18 18 18 18 19 19 19 19 20 20 20 20 20 21 21 21 22 22 22
12 12 13 14 15 16 17 18 19 20 21 22 23 24 25 26 27 28 29 31 31 31 30 30 29 29 28 27 27 26 24 23 22 21 21 20 19 18 17 17 16 16 16 16 15 14 14 14 14 14 15 15 15 15 15 15 16 16 17 17 18 18 18 18 18 19 19 19 18 18 18 18 18 18 19 19 19 19 19 19 20 20 21 21 21
12 13 14 14 15 16 17 18 19 20 21 22 23 24 25 26 27 28 29 30 31 32 31 30 30 29 28 28 27 26 25 23 22 21 20 19 17 16 16 16 15 15 15 15 14 14 14 13 13 13 13 14 14 14 14 15 15 16 16 17 18 18 19 19 20 20 20 20 20 19 19 18 18 18 19 19 19 19 18 18 19 20 20 20 21
11 13 14 15 15 16 17 18 18 19 21 22 23 24 25 26 27 27 28 30 31 32 31 31 30 29 29 28 28 26 25 24 22 20 19 18 17 15 15 15 14 14 14 14 14 13 13 13 12 12 12 12 13 14 14 14 15 15 16 17 17 18 19 19 20 21 21 21 21 21 20 19 19 19 19 20 20 20 20 20 20 20 20 20 21
11 13 15 15 15 16 17 18 18 19 20 21 22 24 24 25 26 27 28 29 31 32 31 30 30 29 29 29 28 26 26 25 23 21 19 18 16 15 14 13 13 12 12 13 13 13 12 12 12 11 11 11 11 12 13 13 14 15 15 16 16 17 18 19 19 20 20 21 21 21 21 21 21 21 21 21 21 21 21 21 21 21 21 21 21
11 13 15 16 15 16 17 17 17 19 20 21 22 23 24 25 26 26 27 29 31 32 31 30 30 30 29 29 28 27 26 26 24 22 20 18 17 15 13 12 12 12 11 11 12 12 11 11 11 11 11 10 10 10 11 12 13 13 14 14 15 15 16 17 17 18 18 19 19 19 20 20 21 21 21 22 22 22 22 21 21 21 21 21 21
12 14 15 15 15 15 17 17 17 19 20 21 21 22 23 24 25 25 26 28 30 31 31 30 30 30 29 29 28 27 27 27 26 23 21 19 17 16 14 12 12 11 10 10 11 11 10 10 10 10 10 10 9 9 9 10 10 11 12 13 13 14 14 14 15 15 16 17 17 18 18 19 19 19 20 20 20 20 21 21 21 21 21 21 21
12 14 15 15 15 15 16 17 17 18 19 20 21 22 22 23 24 25 26 27 28 30 30 30 30 30 30 29 28 27 26 26 26 25 23 21 18 16 14 13 12 11 11 10 10 10 9 9 9 9 9 9 8 8 8 8 8 9 10 11 11 12 13 14 14 14 15 15 16 16 17 17 18 18 18 18 19 19 20 20 20 19 19 20 20
12 14 15 15 15 16 17 17 18 18 19 19 20 22 22 23 24 24 25 26 28 28 29 29 30 30 30 29 28 27 26 26 26 26 25 22 19 16 15 14 13 12 11 10 9 8 8 9 8 8 8 8 8 8 8 8 8 8 9 9 10 11 12 13 14 14 15 15 15 16 16 16 17 17 17 18 18 19 19 18 18 18 18 18 18
12 13 14 15 16 17 18 18 18 18 18 19 21 22 22 23 23 24 25 26 27 28 28 28 30 30 30 29 28 27 26 26 25 25 25 23 20 17 15 15 14 12 11 10 9 7 7 7 8 8 8 8 8 7 7 8 8 9 10 10 10 10 11 11 12 13 14 14 15 15 15 15 15 15 16 16 17 18 18 17 17 17 17 17 17
12 13 14 16 16 17 18 18 17 17 18 20 21 22 22 22 22 23 24 25 26 27 27 28 29 29 29 29 28 27 26 26 25 25 24 23 22 19 17 15 14 13 12 10 9 8 7 6 7 7 8 8 8 8 8 8 8 8 9 10 10 9 9 10 10 10 11 12 13 14 14 15 15 15 15 16 16 16 16 16 16 16 16 17 17
12 13 14 15 16 17 18 18 18 18 18 20 21 22 22 22 22 23 23 24 25 26 27 27 27 28 29 28 28 27 26 26 25 25 24 24 23 21 19 16 15 13 12 11 10 9 8 6 6 6 7 7 8 8 9 9 9 8 8 8 9 9 9 9 9 9 9 10 10 11 11 12 13 14 14 15 15 15 16 16 15 15 15 16 16
12 13 14 15 16 17 18 18 18 18 19 20 21 21 21 21 22 22 22 23 24 25 25 26 27 28 28 28 28 27 26 26 25 25 25 24 23 22 21 18 16 14 13 12 10 9 8 7 7 7 7 7 7 7 7 8 9 9 8 7 7 8 8 8 8 9 9 9 10 10 10 11 11 12 12 13 14 14 15 15 15 14 14 15 15
12 13 14 15 16 17 17 18 19 19 19 20 20 20 21 21 22 22 22 22 23 24 24 25 26 27 27 27 27 27 26 25 25 25 24 24 23 22 22 20 18 15 14 12 11 9 8 8 7 7 7 6 6 6 6 6 8 8 8 8 8 7 7 7 8 8 9 9 10 10 11 11 11 12 12 13 13 13 13 14 13 13 13 13 14
11 13 14 15 16 16 17 18 19 19 20 20 20 20 21 21 21 22 22 22 22 23 24 24 25 26 26 27 27 26 26 25 25 24 24 23 23 22 22 21 20 17 15 13 12 11 9 8 7 7 7 7 6 6 6 6 6 7 8 8 8 7 7 7 8 8 8 9 10 10 11 11 11 12 12 13 13 13 13 13 13 13 13 13 13
11 13 14 15 16 16 17 18 18 19 20 20 20 20 21 21 22 22 22 22 21 22 23 23 24 25 25 26 27 27 26 25 25 24 24 23 22 22 21 21 20 19 17 15 13 12 11 9 8 8 7 7 7 7 6 6 6 6 7 7 7 8 8 8 9 8 8 8 9 10 10 10 11 11 11 12 13 13 13 13 13 13 13 14 14
12 13 14 15 15 16 17 18 18 19 19 20 20 20 21 22 22 22 22 22 22 22 22 23 23 24 24 25 26 26 26 25 24 24 24 23 22 22 21 21 20 19 18 16 15 14 12 11 9 9 8 7 7 7 7 6 6 6 7 7 8 8 9 9 9 10 9 9 9 9 10 10 10 11 11 11 12 13 13 13 13 13 14 14 14
12 14 14 15 15 16 17 18 18 18 19 19 20 21 21 22 21 22 22 22 22 22 22 23 23 23 23 24 25 25 25 25 24 24 23 23 22 21 21 20 20 19 18 17 16 15 14 12 11 10 9 7 7 7 7 6 6 6 7 8 8 9 9 9 10 10 10 10 10 10 10 11 11 11 11 11 12 12 13 13 13 13 13 13 14
12 13 14 14 15 16 16 17 17 18 18 19 20 20 21 21 21 22 22 22 22 22 23 23 22 23 23 24 24 24 24 24 24 24 23 23 22 21 21 20 19 19 18 17 16 15 14 13 12 11 10 8 7 7 7 7 7 7 8 8 9 10 10 10 10 10 10 10 10 10 11 11 11 12 12 12 12 12 12 12 13 13 13 12 13
13 13 14 14 15 15 15 16 17 18 18 18 19 20 20 21 21 21 21 22 22 22 22 22 22 23 23 23 23 23 23 24 24 24 24 23 21 21 20 20 19 19 18 17 16 15 14 13 12 12 11 9 8 8 8 8 8 8 9 10 10 11 11 11 11 11 10 10 10 10 10 11 11 12 12 12 13 13 12 12 12 12 13 12 12
13 13 13 14 15 15 15 16 16 17 17 18 18 19 20 21 21 21 21 22 22 22 22 22 22 22 22 23 23 23 23 23 23 24 24 23 21 21 20 20 20 19 18 17 17 16 15 14 13 12 11 10 9 9 9 8 9 9 10 11 11 11 11 11 10 10 11 10 11 11 11 11 12 12 12 12 13 13 13 12 12 13 13 13 13
13 13 14 14 15 15 15 15 16 16 17 17 18 19 19 20 21 21 21 21 21 22 22 21 21 21 22 22 23 23 22 22 22 23 23 23 22 21 21 21 20 19 18 18 17 16 15 15 14 13 12 11 10 9 9 9 10 10 11 11 11 10 10 10 10 10 10 11 11 12 12 13 13 13 13 13 12 12 12 12 12 12 13 13 13
13 14 14 14 14 15 16 16 16 17 17 18 18 18 19 19 20 21 21 21 21 22 21 21 20 21 21 22 22 22 22 22 22 22 22 23 23 22 22 21 20 19 19 18 17 17 16 15 15 14 13 12 11 10 10 10 11 11 11 10 9 9 9 9 9 10 10 11 11 12 12 13 13 13 13 13 13 13 13 13 12 12 12 12 13
Wind_Direction
302 304 306 307 310 311 312 313 312 311 309 308 307 306 306 307 307 305 305 305 306 307 308 309 310 312 314 316 317 317 318 318 317 317 315 312 310 307 301 291 280 271 265 260 254 251 249 246 243 240 238 236 236 237 237 237 236 235 235 234 234 233 232 231 232 231 231 230 227 225 224 222 222 222 222 220 219 221 224 228 228 227 228 227 226
301 303 305 307 310 311 311 312 312 311 311 310 309 307 307 308 308 307 306 305 306 307 308 309 310 312 314 316 318 318 319 320 320 320 318 315 312 309 303 294 282 272 264 259 254 251 249 246 243 240 238 237 236 237 239 238 238 237 235 234 233 232 231 230 229 229 229 229 226 224 224 222 222 222 222 221 219 220 225 228 228 228 229 228 226
301 303 305 308 309 310 311 312 312 312 311 311 310 308 307 307 309 309 307 306 306 307 308 308 310 311 312 315 317 317 319 320 320 321 321 318 315 311 304 294 283 272 264 259 254 252 250 246 243 241 239 239 238 238 239 239 238 237 235 233 232 231 229 228 228 227 228 228 226 224 224 223 222 221 222 221 220 221 226 229 228 228 229 228 227
301 303 305 307 309 310 311 311 310 311 311 310 310 308 307 307 308 310 310 309 308 308 307 308 310 311 311 313 316 317 318 319 320 321 321 320 317 313 306 295 284 275 268 261 256 254 252 249 245 243 241 240 240 240 239 239 238 236 235 233 231 230 228 227 227 228 228 228 227 225 224 223 222 221 221 222 221 223 226 228 228 228 228 227 227
302 304 305 307 308 310 311 310 310 310 310 310 310 309 307 306 308 310 311 311 311 310 310 310 309 310 310 311 315 317 318 319 319 320 321 320 318 314 307 297 287 280 272 264 259 256 254 251 246 243 241 241 240 240 239 238 238 237 235 233 231 229 228 228 229 230 229 227 227 226 225 223 222 221 221 221 221 222 226 228 228 228 228 227 228
302 304 307 309 310 311 312 312 311 311 310 311 310 310 309 307 307 310 310 311 311 311 312 311 310 310 309 309 313 316 317 318 319 320 320 321 319 314 307 298 289 283 275 267 262 258 255 252 248 244 243 242 241 240 239 238 237 236 233 232 231 230 229 230 230 230 229 227 227 226 224 223 222 221 221 221 220 221 225 227 227 227 228 228 230
303 305 307 310 311 312 313 313 312 311 310 310 310 309 309 308 307 308 308 309 310 311 311 312 311 311 310 309 311 315 316 316 318 319 320 320 320 316 308 298 290 285 278 270 265 261 257 253 250 246 244 244 242 240 239 236 235 235 233 232 231 230 230 230 230 230 228 227 227 226 224 223 222 222 222 222 222 223 224 225 224 225 228 230 233
303 305 306 309 311 312 313 313 312 312 310 310 309 309 308 308 307 307 307 307 309 310 311 311 310 311 311 310 310 314 316 315 316 318 318 318 318 316 311 302 291 285 279 271 266 263 259 255 251 248 246 245 243 241 240 238 234 233 233 231 231 230 230 230 230 229 228 226 226 226 224 223 223 223 223 222 222 223 224 224 223 223 226 230 234
303 305 307 309 310 311 312 313 313 313 312 312 311 310 309 308 308 308 308 307 308 309 309 310 310 311 311 310 310 312 315 315 316 317 316 316 316 315 312 305 294 286 280 274 268 264 260 256 252 249 247 246 244 242 241 239 235 233 232 231 231 230 230 229 229 228 228 226 226 226 225 224 223 222 223 223 222 223 224 224 224 224 226 228 233
305 307 309 309 309 309 310 312 312 313 314 314 313 313 312 312 311 311 310 309 308 309 310 310 310 311 311 310 310 311 313 313 315 317 316 314 314 313 311 306 296 287 282 277 272 268 263 257 253 250 248 247 246 243 242 240 237 236 235 234 232 231 229 229 229 228 227 226 226 226 227 226 225 223 223 223 223 223 222 223 225 226 226 227 232
307 309 309 309 310 310 311 312 313 313 314 315 314 314 314 314 314 314 314 313 311 310 311 312 311 311 311 311 310 311 312 314 315 315 315 313 312 311 310 307 299 290 284 278 275 271 265 259 255 252 250 248 246 244 242 240 239 238 237 236 234 233 230 229 228 228 228 227 227 227 228 228 227 225 224 222 223 224 223 224 226 227 225 226 230
309 310 310 310 311 313 313 314 315 315 315 315 315 315 314 314 314 315 316 316 314 312 312 313 313 312 311 311 310 311 312 315 315 315 314 312 310 308 308 306 301 294 286 280 275 270 265 261 258 254 251 249 247 245 243 241 240 239 237 236 234 233 232 231 229 228 228 228 228 228 229 229 228 226 224 223 223 224 225 227 228 226 224 225 228
310 312 312 312 313 315 315 316 316 316 316 315 315 315 314 313 313 314 315 315 315 314 314 313 314 314 313 311 311 310 312 315 316 315 314 312 309 306 305 305 302 296 290 284 277 270 264 262 258 254 253 251 249 248 245 243 241 239 238 235 233 233 234 234 233 232 231 229 228 228 229 229 228 227 225 224 224 225 226 228 229 227 226 226 227
311 314 314 314 314 315 317 317 317 317 316 315 315 315 315 313 311 311 313 314 314 314 313 313 313 314 313 312 310 310 312 314 315 315 315 313 310 305 302 301 300 297 293 286 279 272 266 261 258 256 255 253 251 249 247 245 243 241 237 234 233 233 233 233 234 233 232 231 230 229 229 229 228 227 226 227 227 227 227 229 229 227 227 228 229
311 315 316 316 316 317 319 319 319 319 318 317 317 317 316 314 312 310 311 312 312 312 311 311 312 312 312 311 310 309 311 313 314 313 313 313 311 306 301 298 296 295 293 287 280 273 268 263 259 257 256 254 253 252 249 247 245 242 237 234 234 233 233 233 233 232 232 232 231 231 230 229 228 227 228 229 231 230 231 232 230 229 229 230 232
312 317 319 319 319 320 320 321 321 321 320 319 320 320 319 316 314 312 310 311 311 311 310 309 309 310 310 310 310 309 309 311 312 311 311 311 309 305 301 297 294 292 291 288 282 275 270 266 262 259 257 254 254 255 253 249 245 242 240 237 235 235 234 235 234 233 231 231 231 231 231 229 227 227 228 230 231 231 233 232 230 229 230 231 233
316 319 321 322 322 322 322 323 322 322 321 321 321 322 321 318 316 313 311 310 311 310 309 307 307 307 308 308 308 307 307 309 310 310 309 309 307 303 300 296 293 290 287 286 283 277 273 270 265 261 258 255 255 256 253 249 245 243 241 238 236 236 236 235 233 231 230 229 230 231 231 229 228 227 228 229 231 232 231 229 227 229 230 232 234
318 321 322 323 323 323 324 324 324 323 323 323 322 322 322 320 318 315 312 311 311 309 307 306 306 306 305 305 305 305 305 307 308 308 308 307 305 302 299 295 292 290 287 284 282 279 276 273 269 263 260 257 256 256 253 250 246 243 241 239 237 237 236 234 232 230 229 229 229 231 232 230 229 229 230 231 232 232 230 229 229 230 231 233 235
320 321 323 324 325 325 326 327 327 326 326 326 325 324 324 323 321 319 317 315 313 311 308 306 306 305 304 303 303 302 302 303 305 306 305 305 304 300 298 295 292 290 287 283 281 279 277 274 271 266 263 259 257 256 254 251 246 243 241 239 238 237 236 235 233 231 230 230 230 232 233 231 230 231 232 232 233 232 231 230 231 232 233 234 235
322 324 326 328 329 330 331 332 332 331 329 329 329 328 327 326 325 324 322 320 318 316 312 309 308 307 305 303 302 301 300 300 301 303 302 303 303 300 297 295 292 290 287 284 281 279 276 273 271 270 267 263 259 256 254 251 247 243 241 240 239 237 236 236 235 233 231 230 230 232 232 230 230 231 232 233 233 231 229 230 232 233 234 235 237
326 330 334 334 334 335 337 338 337 336 334 333 333 333 331 329 328 327 325 323 322 320 317 313 311 311 309 305 302 301 300 299 299 299 300 300 300 299 296 293 290 288 287 284 282 280 278 274 272 272 271 268 263 257 253 251 248 243 241 241 239 236 235 234 233 231 229 228 229 230 230 230 229 230 231 233 233 231 231 233 236 236 236 237 238
336 339 341 341 340 339 340 341 342 342 341 339 338 338 336 334 332 331 329 327 325 324 321 317 315 314 312 309 305 302 300 299 298 297 297 298 298 297 295 292 289 286 285 285 284 281 280 277 274 273 271 269 267 263 256 252 248 244 243 241 237 234 234 233 231 230 229 229 229 230 231 231 230 230 232 233 234 234 234 237 239 239 239 240 240
344 344 344 345 345 342 341 343 345 346 346 345 344 343 342 340 338 336 334 331 329 327 325 322 319 317 315 312 309 305 300 297 297 296 295 295 296 296 295 293 290 285 282 282 282 281 279 277 275 274 270 267 266 266 263 257 250 246 244 240 235 233 232 232 231 230 229 229 230 231 232 232 231 232 233 233 234 235 237 239 241 240 239 240 241
345 345 345 346 348 347 344 344 347 349 350 349 348 347 346 345 343 340 338 336 334 331 329 326 323 321 319 316 314 310 303 298 296 296 294 293 294 294 294 293 291 287 281 278 278 278 276 275 275 274 271 267 263 262 261 259 255 250 244 238 234 233 233 233 232 232 231 231 232 232 233 233 233 234 234 235 235 236 237 240 241 240 238 238 238
346 347 347 348 349 351 350 348 349 351 352 351 350 349 349 348 347 345 342 341 339 336 333 330 328 325 323 320 318 315 309 302 298 296 294 292 291 292 292 292 292 289 285 280 277 275 274 273 274 274 273 270 265 259 256 255 253 250 245 239 234 233 233 232 232 232 232 233 232 232 233 235 235 236 235 235 236 236 238 240 241 240 238 237 236
347 347 349 351 351 352 352 351 349 350 351 352 351 351 351 351 350 349 347 346 344 341 337 335 333 331 328 326 322 319 316 309 303 300 296 292 289 288 288 289 290 290 288 284 281 278 274 272 271 271 271 271 267 262 257 254 251 249 245 240 235 233 232 232 231 230 230 230 230 231 234 236 237 237 236 236 236 237 238 239 238 237 235 234 232
350 349 350 351 350 349 350 351 350 349 351 353 353 353 354 353 353 352 351 350 348 345 342 339 337 335 333 331 328 324 320 315 310 305 301 295 290 286 285 285 287 287 286 284 281 278 275 271 268 265 265 265 264 261 258 255 251 247 242 238 234 232 232 233 231 228 227 226 227 230 232 234 235 237 237 237 236 236 237 236 235 234 233 233 232
351 351 350 350 349 348 349 351 351 351 352 353 354 354 354 354 354 354 353 353 351 349 346 344 341 339 336 334 332 328 325 321 315 311 306 301 294 289 285 284 283 283 283 283 281 279 277 274 270 266 263 261 260 258 255 252 247 243 239 237 236 234 232 231 229 228 228 227 228 229 232 234 236 237 236 236 235 235 234 233 232 231 232 233 233
347 346 346 347 348 347 349 351 352 352 353 353 353 353 353 354 354 354 354 354 354 352 350 348 345 343 341 339 337 333 329 324 320 315 310 305 300 294 288 284 282 281 281 281 281 281 281 279 275 272 268 265 261 258 255 252 247 242 240 239 239 236 233 230 229 229 229 229 230 232 233 235 236 235 234 233 233 232 231 230 230 230 231 232 233
347 346 345 346 347 348 349 350 352 353 353 353 353 352 353 354 354 355 355 355 355 355 353 351 348 347 345 344 342 340 335 329 324 321 317 311 306 300 293 288 284 282 282 281 280 280 280 279 277 274 270 267 265 261 257 254 249 246 243 241 240 238 235 231 229 228 228 229 230 232 233 233 233 232 232 232 231 230 229 228 229 230 231 233 234
344 346 346 347 349 350 350 351 351 352 353 354 354 354 354 354 355 356 357 356 356 356 355 353 351 350 349 348 347 345 342 337 331 327 323 318 312 306 299 294 289 285 283 283 282 280 279 277 275 273 269 266 264 262 258 254 250 247 244 242 240 239 237 235 233 233 233 233 232 233 232 231 229 229 231 231 231 231 231 232 232 233 235 237 237
343 346 348 349 350 351 352 352 352 352 353 354 355 354 355 356 356 356 357 357 357 357 356 354 353 352 351 351 350 349 348 345 340 335 331 326 319 313 307 300 295 289 286 286 285 282 279 278 275 273 270 266 262 260 257 254 250 247 245 243 241 240 239 238 237 237 237 237 236 236 235 234 232 231 232 232 231 232 234 234 235 236 239 240 239
345 348 350 350 350 351 352 353 353 353 354 355 354 355 356 357 357 358 358 357 357 357 357 356 355 354 353 353 353 353 352 351 348 343 339 335 329 323 316 309 303 296 289 287 287 284 280 278 275 273 272 268 263 260 257 253 250 247 245 243 242 240 239 238 238 237 237 238 238 237 238 238 237 236 236 236 235 235 235 235 236 237 238 239 239
348 349 351 352 352 352 351 352 354 355 356 356 356 356 356 357 358 359 359 358 359 359 359 358 357 356 356 356 356 356 355 355 353 349 345 341 337 332 324 318 315 309 297 288 288 287 283 279 276 274 274 271 267 263 259 255 251 248 245 243 241 240 240 239 238 238 238 238 238 237 238 239 238 238 237 237 238 239 239 240 241 241 240 240 241
353 352 352 353 354 354 353 353 355 356 356 356 357 357 356 357 358 359 360 360 360 0 1 0 360 359 359 359 359 359 358 357 357 355 351 346 342 338 333 328 325 321 310 297 290 288 285 282 279 277 276 273 270 266 261 257 254 250 247 244 242 240 239 239 239 240 239 239 239 238 237 238 239 239 237 237 238 239 240 241 241 241 240 239 239
355 355 354 354 355 355 354 354 355 356 356 357 358 357 357 357 357 358 359 360 360 1 2 2 2 1 1 1 1 0 359 359 359 359 357 352 347 344 343 339 335 331 323 310 297 290 287 283 281 279 276 272 269 266 260 256 254 252 249 246 243 240 239 238 238 239 239 239 239 239 239 240 240 240 239 237 237 238 238 238 237 238 238 237 236
353 355 355 355 354 352 350 351 353 356 357 357 358 358 357 357 357 358 358 359 360 1 2 2 2 2 2 2 2 2 1 0 -0 0 1 359 356 353 350 347 343 339 332 322 310 299 292 286 281 278 275 270 267 264 260 256 252 251 250 248 245 243 242 240 239 239 239 238 238 238 238 239 239 238 237 237 237 237 236 234 234 235 235 235 235
350 352 352 352 351 351 350 349 352 356 358 358 359 358 357 356 357 357 357 358 360 1 2 2 2 3 3 3 3 3 2 2 2 1 2 3 3 0 357 353 350 347 340 332 326 317 306 296 285 278 274 270 266 264 263 261 257 253 252 250 247 244 242 240 239 238 238 238 237 237 237 236 235 234 233 233 234 234 234 233 233 233 234 234 235
348 348 348 349 350 352 353 353 354 357 358 358 358 357 356 356 357 356 356 357 359 1 2 2 3 4 3 3 4 4 4 4 4 3 4 5 6 4 1 357 355 352 347 340 335 327 317 307 296 285 277 273 268 264 263 264 264 260 254 251 249 246 242 239 238 237 236 236 235 235 235 234 233 232 232 231 230 231 231 233 235 236 237 237 238
346 347 347 348 350 352 353 356 357 357 356 356 356 355 356 357 356 355 356 358 358 360 1 2 2 3 3 3 4 5 6 6 5 5 5 6 6 6 4 2 359 357 352 347 341 333 324 316 306 295 288 281 274 268 264 263 263 262 257 250 248 247 245 243 241 238 234 232 231 231 232 233 234 234 235 235 235 235 236 237 240 242 242 240 239
347 348 347 347 349 351 352 354 356 355 354 353 353 354 355 356 356 355 356 357 358 359 1 1 1 2 3 3 4 5 6 6 6 6 6 6 6 7 6 5 2 358 356 353 348 339 331 324 313 302 295 288 280 274 269 263 260 259 258 255 252 251 250 248 245 240 235 233 233 232 232 235 236 236 236 237 237 238 239 239 241 243 242 238 237
345 346 345 345 348 350 350 351 352 352 350 350 351 353 354 355 355 355 356 356 357 358 360 0 1 2 3 3 4 5 6 6 6 6 6 6 6 6 7 7 5 1 358 356 353 347 339 330 320 310 302 294 285 280 275 268 260 256 257 258 256 253 250 247 244 242 239 238 237 236 235 236 236 235 234 234 235 235 237 238 238 239 239 237 236
343 343 343 344 347 348 348 349 350 349 349 349 350 350 352 354 355 355 355 356 356 357 358 359 360 1 2 3 4 5 5 5 5 6 5 5 5 6 6 7 7 5 2 358 354 350 344 337 327 318 311 303 295 289 285 279 267 257 254 254 253 250 249 248 247 248 248 246 243 241 240 239 238 237 236 235 235 235 237 239 239 239 239 240 240
340 341 340 341 344 346 346 347 347 348 349 350 350 349 351 352 353 354 355 356 355 356 357 357 358 360 2 3 4 5 5 4 5 5 5 4 4 5 5 6 7 7 6 3 358 353 349 343 333 324 317 311 305 300 296 290 277 263 257 255 252 250 251 251 251 252 254 253 249 245 242 241 241 239 238 238 237 237 238 240 241 241 242 242 242
337 339 338 339 342 344 345 344 344 346 349 352 352 351 351 351 351 352 354 355 355 355 356 356 357 359 0 2 3 5 5 5 4 4 4 4 3 3 4 5 5 6 6 5 3 359 356 351 343 333 324 316 311 307 303 297 286 274 266 263 260 257 256 255 254 255 255 255 251 246 243 242 242 241 239 237 238 240 241 242 241 241 242 242 242
334 336 337 338 341 342 342 342 344 347 350 352 353 351 351 352 352 352 353 355 356 356 355 355 356 357 359 360 1 3 4 4 4 3 3 3 3 2 2 3 4 4 5 4 3 2 359 356 351 345 336 324 315 311 308 302 293 283 277 272 268 265 263 260 259 259 258 255 251 248 246 245 243 241 239 238 239 241 243 244 243 243 243 243 242
332 334 335 336 338 339 339 341 344 347 349 350 351 351 351 352 352 351 352 354 355 355 355 355 356 357 357 358 359 1 2 3 3 3 2 2 2 2 1 1 1 2 2 2 1 0 359 357 354 351 346 336 323 315 309 302 294 289 285 280 275 272 271 268 264 260 258 256 253 250 248 248 246 244 242 243 244 243 243 243 245 246 247 245 243
327 329 332 334 334 334 336 340 343 344 345 348 349 351 351 351 351 352 352 352 353 353 353 354 355 356 356 357 358 359 360 1 2 2 2 1 1 1 0 360 359 358 358 359 358 357 357 355 352 348 346 340 332 325 318 310 299 292 287 283 279 277 276 274 267 260 256 256 254 251 249 249 248 246 245 246 247 246 244 244 246 247 247 248 246
324 326 329 332 331 330 333 337 339 341 343 346 347 349 349 350 351 352 352 352 352 352 351 351 352 353 355 356 356 357 359 360 0 1 2 1 0 359 358 358 357 356 356 356 355 353 353 353 350 346 342 337 331 326 321 316 309 301 294 288 283 280 278 275 269 262 258 257 256 254 252 251 250 249 249 249 248 246 245 246 247 246 245 248 248
321 322 325 328 330 330 331 334 337 338 339 341 343 345 345 346 348 348 349 351 352 351 349 349 350 353 354 354 354 355 356 357 358 359 1 1 0 359 357 356 355 354 354 353 352 352 351 350 349 346 341 336 331 326 321 318 315 310 304 297 288 282 277 273 269 265 263 261 259 258 257 256 254 252 250 249 248 245 243 244 246 245 245 249 250
319 321 322 325 327 328 328 331 333 334 334 335 338 340 341 342 343 344 345 347 349 349 349 349 350 351 352 352 352 352 353 354 356 357 358 358 359 358 357 355 354 354 353 352 351 351 350 349 348 345 342 339 336 331 326 323 320 315 310 303 294 285 279 274 269 267 266 265 264 263 262 260 258 254 251 249 247 244 242 242 244 245 247 250 252